RH
51 61 64 47 38 34 33 37 38 33 26 27 32 30 26 21 22 21 22 25 45 54 65 70 78 72 72 82 77 78 81 82 82 85 83 84 81 85 86 85 91 92 88 88
55 62 46 40 39 39 39 42 41 33 27 28 31 32 27 23 20 20 23 28 52 60 61 63 66 77 76 88 90 94 90 86 82 77 76 74 69 82 80 79 86 91 93 94
68 49 42 45 44 45 42 44 42 40 30 28 34 35 29 22 20 20 21 29 47 56 60 57 57 58 77 87 92 93 89 88 81 77 82 79 83 74 83 84 84 85 86 88
66 51 44 48 50 42 50 36 37 37 39 49 32 46 34 27 24 21 20 43 48 54 55 52 51 51 50 53 56 60 76 85 88 91 86 84 80 83 66 80 84 82 84 78
62 56 55 47 47 40 44 35 36 37 41 43 38 46 35 27 27 24 23 32 46 51 53 51 47 45 41 37 38 47 67 81 92 88 78 68 71 45 46 69 84 80 72 78
56 39 44 42 35 38 35 38 37 39 42 57 40 40 36 31 28 26 22 23 44 51 51 49 43 41 40 37 35 32 36 35 40 43 41 38 38 38 35 36 38 46 56 68
54 53 42 35 45 36 40 47 70 75 66 61 35 43 32 28 23 23 26 30 44 47 52 50 46 42 44 36 35 31 26 32 30 29 32 32 34 35 39 43 47 50 50 52
72 70 49 39 41 43 43 43 67 72 69 57 38 51 40 27 24 25 21 33 43 46 49 49 46 42 41 35 30 29 28 31 29 30 32 32 34 34 36 38 41 42 44 51
68 63 34 37 33 34 41 48 35 61 59 71 54 48 38 28 31 28 30 45 45 48 48 48 46 44 41 37 29 26 27 29 30 32 32 31 33 35 37 41 44 46 55 67
53 66 39 35 31 30 34 31 49 52 74 76 60 59 50 41 32 34 35 45 46 45 46 45 43 41 40 32 27 26 27 28 30 30 31 33 34 37 40 43 47 53 60 77
55 62 59 39 40 46 41 42 40 41 70 69 70 55 41 38 40 47 48 45 44 42 41 40 38 35 37 32 28 26 27 28 29 31 32 33 36 38 43 47 54 60 69 80
52 62 74 59 45 32 34 37 36 64 63 67 65 56 39 37 43 52 49 45 41 35 34 33 34 34 35 34 29 27 29 30 29 32 37 41 46 49 51 56 66 76 78 80
61 72 95 76 56 56 70 36 33 44 65 56 72 60 42 45 54 49 51 44 39 36 35 35 35 34 33 35 31 30 29 30 35 37 42 49 50 51 60 76 84 85 84 83
55 68 79 73 59 53 67 57 38 40 64 62 61 55 48 55 59 56 51 44 38 32 31 34 36 37 35 35 32 32 34 35 39 43 51 56 60 68 81 87 87 85 85 88
65 74 74 63 48 46 47 53 58 54 46 67 53 56 49 49 56 53 45 40 36 32 32 32 36 41 40 41 37 36 37 39 42 52 59 70 79 82 84 83 85 89 91 89
63 80 83 88 64 53 62 49 60 57 48 49 52 55 45 44 51 51 45 39 36 32 32 32 35 39 42 42 43 39 39 45 50 65 74 78 76 80 84 86 86 88 88 89
75 78 86 92 66 67 80 61 58 61 55 51 58 44 43 43 52 54 48 37 34 32 32 34 35 38 38 40 39 42 43 55 61 67 72 72 77 81 84 82 84 85 86 84
100 88 83 88 74 96 72 46 41 48 47 42 41 38 44 41 43 50 41 36 33 31 30 32 34 37 37 39 39 45 50 55 60 65 69 72 74 79 82 91 90 92 92 92
91 98 99 97 91 91 80 64 56 56 53 40 40 42 41 41 47 46 39 34 32 29 28 32 33 33 35 40 44 43 47 44 50 64 64 69 74 78 82 85 86 90 92 99
82 96 98 97 96 96 66 53 46 49 75 50 50 51 54 64 75 54 41 34 30 26 29 32 31 33 36 42 41 40 44 48 58 64 60 65 75 80 83 87 90 92 95 95
99 99 97 100 96 94 67 48 48 85 61 39 49 50 51 56 49 42 40 30 26 29 29 29 29 32 35 41 39 43 46 46 34 50 54 66 80 85 88 90 93 95 96 94
88 98 99 98 99 95 54 60 67 52 35 46 49 45 50 44 50 48 37 34 32 29 29 28 30 31 36 39 38 45 52 35 36 54 61 59 73 85 91 92 95 100 97 98
96 94 100 89 82 67 48 50 41 36 39 48 49 43 42 45 44 40 38 34 31 29 27 28 29 30 32 38 37 45 42 38 51 65 66 71 77 90 88 89 98 100 100 100
55 84 100 100 71 47 49 43 37 40 45 52 48 43 44 39 38 37 33 31 30 28 29 27 28 30 36 35 37 34 37 41 58 70 77 79 81 96 100 97 99 100 100 100
91 83 78 97 66 54 43 41 47 54 52 46 42 38 35 35 34 32 32 30 28 29 27 28 31 36 34 34 38 41 41 52 70 73 78 86 82 89 94 98 97 99 99 99
83 88 93 76 64 52 51 49 49 50 48 41 39 38 34 31 32 31 31 30 28 30 28 32 38 43 45 39 40 45 52 56 67 80 90 93 90 89 87 86 89 93 97 100
Wind_Speed
5 6 13 19 19 14 16 5 8 4 13 1 9 11 16 18 8 11 10 13 12 13 8 19 28 28 24 27 31 35 36 35 35 28 21 17 15 12 13 11 10 14 17 19
9 27 15 14 14 14 15 16 12 15 22 6 15 15 11 11 11 11 10 10 13 9 10 10 21 26 28 26 28 27 31 30 27 26 20 15 16 11 9 10 12 14 14 14
24 14 16 16 18 17 19 20 16 16 20 18 7 15 7 8 5 7 7 12 17 21 16 12 12 22 27 27 26 25 23 22 22 19 16 12 13 8 7 6 8 9 11 13
19 21 18 22 24 20 23 18 19 19 13 11 6 10 9 6 10 7 9 14 14 9 9 12 14 18 26 31 31 28 22 20 19 16 14 17 12 10 7 4 5 3 3 4
14 18 30 29 29 25 16 13 17 17 17 16 24 9 6 12 14 11 11 11 18 19 19 17 15 22 31 33 31 29 28 25 23 20 17 15 18 14 9 10 8 4 3 5
26 8 24 35 26 24 14 7 14 18 16 20 13 15 19 16 9 8 12 9 18 17 15 14 20 27 30 31 30 28 28 24 22 22 18 17 16 11 8 7 5 3 5 4
18 27 22 9 21 22 19 13 6 6 8 18 12 11 19 7 19 18 11 8 19 19 16 18 19 18 22 29 28 26 25 22 19 17 16 14 12 10 8 6 5 4 3 4
21 16 35 17 22 14 20 20 7 12 14 12 11 15 7 14 16 8 14 9 18 19 15 15 14 18 24 28 27 26 24 22 16 14 13 10 8 6 5 4 2 1 1 2
13 22 4 30 18 20 19 22 23 3 4 1 8 5 3 8 9 12 8 11 18 18 18 20 16 19 22 26 28 27 23 20 16 14 11 9 6 4 4 3 1 2 2 4
10 5 10 17 25 25 17 9 13 14 14 18 7 7 6 5 16 10 7 14 18 18 19 16 14 20 22 28 29 23 21 18 15 12 10 8 5 4 4 3 3 3 3 6
27 12 5 17 24 31 16 19 8 12 8 15 13 13 8 12 8 9 9 17 21 19 19 18 15 21 25 30 30 25 20 17 14 12 9 6 5 4 4 4 5 6 6 7
36 14 16 15 6 21 33 27 22 9 18 10 7 25 3 6 8 11 13 16 14 18 21 20 17 22 23 25 28 26 22 19 14 9 8 6 5 3 4 5 6 8 8 6
21 13 9 15 17 11 8 26 30 10 5 25 11 23 9 6 8 13 17 14 14 15 17 16 15 14 20 23 27 26 23 18 16 14 11 7 5 2 2 4 6 4 2 1
25 20 25 19 31 15 15 18 23 27 14 19 27 4 4 7 12 11 11 16 18 19 19 16 13 13 19 23 27 26 22 21 18 15 13 11 6 5 5 5 3 1 2 3
17 24 25 34 17 14 21 28 23 23 36 20 30 23 12 12 15 20 21 19 19 19 19 19 16 12 15 20 25 26 23 21 17 16 15 12 9 7 5 3 3 3 1 2
25 12 24 30 34 27 9 23 25 29 29 22 13 17 11 6 11 15 20 23 23 22 20 17 16 15 13 21 25 28 23 19 18 17 14 11 6 6 7 7 4 3 3 2
20 21 18 29 31 24 25 22 31 29 24 31 24 33 16 17 18 20 20 23 24 22 21 20 20 17 21 25 31 28 25 24 20 16 13 8 8 6 6 5 6 6 5 5
12 19 18 18 22 25 7 27 28 33 33 31 28 21 19 20 20 22 24 25 23 22 21 20 17 19 27 31 34 33 29 25 20 16 13 10 9 9 6 4 5 5 4 3
21 18 12 11 22 3 10 11 24 21 28 26 29 23 24 17 12 17 23 24 26 23 22 19 29 32 30 31 36 33 28 23 18 16 12 9 9 9 8 9 8 7 6 5
27 22 13 12 13 18 12 26 21 8 16 25 25 22 15 15 16 15 21 23 24 24 17 21 33 34 33 33 39 35 29 25 21 18 13 9 7 9 10 11 10 8 8 7
7 8 18 6 8 3 7 17 17 17 18 23 28 29 25 22 27 18 20 19 21 22 22 33 34 31 30 34 36 28 30 27 21 18 14 13 12 14 13 13 13 11 12 11
9 6 6 6 3 3 9 21 27 25 2 7 23 24 28 24 9 16 22 22 24 23 24 32 27 27 31 35 33 26 27 30 24 25 21 16 14 14 13 13 13 14 15 14
7 6 2 8 7 5 19 24 14 9 6 6 13 16 17 15 13 20 21 23 22 25 21 30 27 27 28 35 33 25 31 31 29 28 23 19 16 15 13 13 13 16 18 17
15 8 0 4 5 4 9 5 3 2 5 7 7 13 17 14 19 19 19 19 19 18 18 25 25 20 18 30 30 34 34 34 33 30 24 19 16 15 13 11 12 17 20 18
3 3 16 4 6 5 2 4 6 7 10 12 12 18 19 24 20 23 18 18 16 15 17 22 19 16 18 25 27 29 33 36 33 30 25 21 17 15 12 10 11 14 19 19
6 7 9 12 10 5 4 7 13 14 12 16 20 16 15 25 21 19 16 14 15 14 19 17 19 22 19 21 19 21 28 35 33 29 25 21 18 18 16 12 9 11 14 16
Wind_Direction
198 200 210 212 214 221 234 217 230 273 264 250 261 259 258 259 212 227 249 185 162 156 161 132 127 127 135 157 178 182 183 185 184 176 175 178 185 201 207 214 216 219 223 227
224 230 208 218 224 225 231 244 252 279 278 257 268 262 265 283 231 202 200 161 159 143 149 135 127 133 139 146 167 168 169 172 176 189 197 205 212 206 208 228 236 235 233 235
220 227 217 215 224 225 230 231 244 242 278 280 260 267 259 280 259 200 204 164 169 163 153 142 126 121 136 143 147 151 162 170 174 179 180 182 179 177 185 198 218 228 236 244
244 229 225 217 223 211 233 218 235 253 254 260 172 273 250 254 259 227 221 155 172 158 146 141 136 126 128 129 129 131 150 164 174 174 170 160 144 123 94 190 180 170 226 237
212 180 207 225 217 208 236 212 225 248 260 269 259 278 251 216 233 245 229 168 176 171 165 159 146 137 136 135 131 124 127 137 155 154 150 134 130 127 114 106 148 174 205 232
228 216 202 224 222 213 211 231 226 238 248 256 237 239 243 229 217 224 228 194 173 172 168 150 143 139 135 136 132 129 123 121 127 131 135 134 132 129 127 117 121 92 85 80
220 231 242 229 215 221 201 203 231 233 222 247 189 224 235 225 217 211 211 190 175 174 164 157 156 148 138 133 134 133 131 128 131 130 129 131 130 128 119 107 100 88 50 21
212 231 221 209 222 199 202 191 199 208 224 255 236 242 230 224 231 226 230 194 165 166 163 159 157 147 143 140 139 140 140 137 138 138 133 128 123 125 136 153 169 253 317 279
192 231 217 202 204 199 206 211 212 250 182 234 229 290 277 194 237 223 210 142 159 163 162 158 155 151 147 148 147 146 143 143 148 151 151 151 154 165 163 172 205 308 277 205
235 252 209 194 202 219 216 178 188 226 221 238 233 240 224 212 212 207 215 169 166 159 156 155 159 153 150 151 150 149 142 146 153 160 162 160 175 192 202 231 267 293 246 195
221 233 261 188 198 205 207 220 218 208 192 225 252 255 195 206 206 204 170 166 165 159 154 155 153 156 156 155 155 152 149 153 160 162 168 176 195 208 223 247 228 221 202 189
208 223 236 229 159 209 216 216 208 203 215 237 226 250 295 186 195 153 162 161 165 155 152 152 155 151 152 154 155 154 154 160 165 165 160 168 173 205 243 243 204 180 175 183
193 214 229 235 257 270 224 215 218 214 117 231 210 248 187 127 124 162 150 158 152 143 142 142 145 152 153 156 158 156 159 161 153 152 154 141 119 86 112 154 154 148 155 265
173 201 210 215 218 202 217 213 211 209 217 230 228 208 212 160 152 157 161 156 153 153 154 156 156 159 156 153 153 151 151 150 149 149 140 131 126 131 141 140 124 84 319 317
207 212 207 228 237 195 212 214 204 203 218 201 233 223 212 187 173 174 171 157 157 162 167 173 162 156 148 143 144 145 142 145 148 146 142 138 135 134 146 139 117 111 342 356
202 223 203 218 229 233 232 218 203 215 216 228 218 233 185 195 178 169 167 168 172 173 170 166 159 153 151 147 146 142 140 140 151 145 137 136 139 142 128 124 125 168 151 154
207 212 198 220 220 224 229 220 205 213 205 216 212 226 176 202 181 176 172 174 176 177 172 168 166 161 155 153 147 142 141 144 148 148 149 146 137 126 136 155 177 182 201 203
263 230 211 214 209 220 164 218 216 217 215 212 226 204 192 196 185 177 175 176 183 181 173 169 165 156 156 152 150 148 148 154 157 158 152 150 153 156 166 180 182 175 183 250
233 233 235 211 199 125 177 204 199 201 226 212 214 201 203 201 191 201 181 184 184 178 176 169 163 156 152 151 153 153 155 156 161 162 162 165 176 175 184 186 197 207 204 221
222 206 232 185 196 213 198 212 200 170 226 208 208 205 180 151 196 210 188 188 182 178 161 152 154 154 155 159 159 158 159 165 172 171 173 177 192 201 195 197 192 206 213 216
217 213 219 236 184 248 231 175 147 183 226 208 198 201 189 199 209 201 170 174 173 160 156 152 155 160 160 159 160 159 165 175 181 173 176 183 193 194 196 199 203 210 205 204
234 239 203 177 203 233 158 144 165 199 152 160 189 192 194 206 132 157 166 158 156 155 152 153 154 159 159 164 165 162 170 177 181 177 178 177 182 192 195 204 212 213 209 206
243 191 288 224 200 206 169 175 191 174 169 155 173 182 164 155 153 152 153 154 155 153 151 153 152 156 162 170 173 166 178 177 181 176 176 177 179 188 195 210 217 214 210 212
243 215 126 285 262 254 131 96 158 178 153 138 150 156 154 143 145 144 145 147 147 146 146 149 151 160 164 174 178 183 179 185 183 178 177 177 178 182 185 198 216 217 213 214
217 286 211 246 283 1 8 149 145 104 110 105 123 141 147 142 146 143 142 141 141 139 138 143 147 144 154 177 183 180 182 185 181 181 178 180 173 175 173 194 217 227 230 232
217 209 212 219 202 174 179 158 139 125 128 129 123 118 138 138 137 135 132 133 131 126 127 122 122 122 128 139 147 169 181 186 184 181 184 180 177 178 175 171 208 238 247 244